默认 日期 大小 文件数 浏览量 最新下载 xml
henry磁力链接相关资源由用户搜索指令自动获取,结果来源于网络,本站不存储任何资料,亦不承担任何责任,请于24小时内删除,搜索到6817个磁力,显示前4000条数据,用时5ms。
    {"cover.jpg": 406655, "16. Lost.mp3": 3712341, "13. Grey Fox.mp3": 6356985, "18. Ambushed.mp3": 5878422, "02. The Beach.mp3": 3711306, "23. King Kong.mp3": 6690310, "07. The Island.mp3": 3251553, "12. The Temple.mp3": 14094459, "17. The Boneyard.mp3": ...
创建时间: 2018-12-24 23:52:25 大小:135.34 MB 文件数量:25 热度:7 最近下载:2024-10-31 13:16:01
    ... Funeral Procession.mp3": 6439886, "00 - Henry Mancini [1983] Thorn Birds [TV ...
创建时间: 2018-12-25 00:43:40 大小:269.99 MB 文件数量:50 热度:8 最近下载:2023-04-15 03:10:08
    {"Henry's.Crime.2010.BDRip.(ENG).ac3": 362091758, "Henry's.Crime.2010.BDRip.Kireev.avi": 1602316288, "Henry's Crime.2010.BDRip.Goblin.by.Vouka.srt": 121172}
创建时间: 2018-12-25 00:45:36 大小:1.83 GB 文件数量:3 热度:15 最近下载:2025-02-09 04:59:02
    {"Subs": {"Punching.Henry.2016.720p.BluRay.H264.AAC-RARBG.idx": 109877, "Punching.Henry.2016.720p.BluRay.H264.AAC-RARBG.sub": 14372864}, "RARBG.txt": 30, "Punching.Henry.2016.720p.BluRay.H264.AAC-RARBG.mp4": 1217030874}
创建时间: 2018-12-25 01:34:08 大小:1.15 GB 文件数量:4 热度:9 最近下载:2025-04-20 12:01:56
    {"Read me.txt": 91, "Torrent downloaded from Demonoid.me.txt": 46, "Horrid Henry Goes To The Movies 2011 DVDRip XViD DTRG.avi": 964542912}
创建时间: 2018-12-25 01:45:15 大小:919.86 MB 文件数量:3 热度:9 最近下载:2024-11-14 17:52:01
    {"hip.hop.squares.2017.s02e10.ceaser.vs.ryan.henry.hdtv.x264-crimson.nfo": 825, "Hip.Hop.Squares.2017.S02E10.Ceaser.vs.Ryan.Henry.HDTV.x264-CRiMSON[N1C].mkv": 224423665}
创建时间: 2018-12-25 02:06:16 大小:214.03 MB 文件数量:2 热度:10 最近下载:2023-04-15 04:10:07
    ... a Pound (Opening).flac": 28340507, "Henry Threadgill Zooid - In for a ... trombone and tuba).flac": 99355984, "Henry Threadgill Zooid - In for a ...
创建时间: 2018-12-25 02:17:49 大小:429.34 MB 文件数量:14 热度:10 最近下载:2025-04-22 13:30:02
    {"12 Twisted.mp3": 3614388, "09 Cold Feet.mp3": 4639846, "04 Shaky Nancy.mp3": 6263600, "06 Wheely Down.mp3": 5333866, "08 Painted Ladies.mp3": 6418106, "10 Mary and Joseph.mp3": 3081351, "02 Nobody's Wedding.mp3": 5820142, "07 The New St. George.mp3": ...
创建时间: 2018-12-25 02:42:13 大小:64.11 MB 文件数量:12 热度:7 最近下载:2023-04-15 04:40:07
    {"Walden, czyli życie w lesie - Henry David Thoreau (Wydanie IV, 2018). ... , "Walden, czyli życie w lesie - Henry David Thoreau (Wydanie IV, 2018 ... , "Walden, czyli życie w lesie - Henry David Thoreau (Wydanie IV, 2018 ...
创建时间: 2018-12-25 03:26:17 大小:6.38 MB 文件数量:3 热度:9 最近下载:2023-04-15 05:30:04
    {"RARBG.txt": 31, "The.Book.Of.Henry.2017.1080p.BluRay.REMUX.AVC.DTS-HD.MA.5.1-FGT.mkv": 30273285264}
创建时间: 2018-12-25 04:30:27 大小:28.19 GB 文件数量:2 热度:10 最近下载:2023-04-15 06:20:07
    {"11 Łgarz 1.mp3": 45874728, "12 Łgarz 2.mp3": 26835767, "13 Łgarz 3.mp3": 46989853, "14 Wychowanek 1.mp3": 8567117, "15 Wychowanek 2.mp3": 12092442, "16 Wychowanek 3.mp3": 4725303, "17 Wychowanek 4.mp3": 10723907, "18 Wychowanek 5.mp3": 13243004, "19 ...
创建时间: 2018-12-25 05:28:53 大小:448.13 MB 文件数量:21 热度:10 最近下载:2024-10-30 13:18:03
    {"BookmarkAndRead.txt": 116, "henry.danger.s02e01.720p.hdtv.x264-w4f.mkv": 937455260, "henry.danger.s02e01.720p.hdtv.x264-w4f.nfo": 6948}
创建时间: 2018-12-25 05:58:52 大小:894.03 MB 文件数量:3 热度:7 最近下载:2023-04-15 07:30:07
    {"Cover.jpg": 67402, "01. Oh Why.mp3": 7024680, "09. Slow Down.mp3": 9762457, "06. Ocean of War.mp3": 9486466, "13. I'm Your Baby.mp3": 8335001, "11. No More Maybes.mp3": 11126425, "02. A Friend Like You.mp3": 8462471, "03. Down by the River.mp3": 8079001, ...
创建时间: 2018-12-25 09:56:36 大小:106.39 MB 文件数量:14 热度:8 最近下载:2023-04-15 10:10:02
    {"Santa Claus Disc One Film Score": {"18 Bad Toys.opus": 307309, "19 Sad Patch.opus": 1485589, "28 A New Doll.opus": 373648, "23 Patch Natch.opus": 578785, "14 Table Scraps.opus": 621301, "21 No Free Toys.opus": 554530, "20 Vanishing Elf.opus": 788206, "29 ...
创建时间: 2018-12-25 10:11:12 大小:78.62 MB 文件数量:64 热度:13 最近下载:2025-09-21 10:17:04
    {"10-Les animaux.pdf": 398667, "02-Noms et prénoms.pdf": 345643, "13-La vie quotidienne.pdf": 789649, "03-Mythes et légendes.pdf": 453514, "15-D'autres expressions.pdf": 774195, "09-Villes, pays et peuples.pdf": 667986, "07-Les jeux et les spectacles.pdf": ...
创建时间: 2018-12-25 11:18:01 大小:6.56 MB 文件数量:15 热度:11 最近下载:2025-03-29 07:22:02
    {"FREAKYFLICKS.txt": 870, "Henry Potter - Hellzapoppin' (1941).avi": 736395264, "_____padding_file_0_if you see this file, please update to BitComet 0.85 or above____": 261274}
创建时间: 2018-12-25 11:26:04 大小:702.53 MB 文件数量:3 热度:11 最近下载:2025-01-31 09:23:02
    {"01 - Part One.mp3": 46968263, "02 - Part Two.mp3": 10128295, "04 - Part Four.mp3": 18123856, "03 - Part Three.mp3": 40697833}
创建时间: 2018-12-25 11:34:30 大小:110.55 MB 文件数量:4 热度:10 最近下载:2025-04-23 13:25:02
    {"free audiobook version_.txt": 427, "Rebalancing Society by Henry Mintzberg.epub": 2069529}
创建时间: 2018-12-25 14:28:03 大小:1.97 MB 文件数量:2 热度:8 最近下载:2023-04-15 13:00:02
    {"CD1": {"16 - Return (1939).mp3": 12472129, "10 - 26 Simultaneous Mosaics (Take 8) (1963).mp3": 20689259, "12 - Suite For Woodwind Quintet (1934) - Allegro.mp3": 2289659, "11 - Suite For Woodwind Quintet (1934) - Allegretto.mp3": 2526856, "01 - Mosaic ...
创建时间: 2018-12-25 14:49:48 大小:231.4 MB 文件数量:32 热度:9 最近下载:2023-04-15 13:30:05
    ... Grande Finale.mp3": 12260360, "Henry Lee Summer 1999.jpg": 42675 ... Psychotic, Neurotic).mp3": 8125745}, "Henry Lee Summer-1986-Time For ... .mp3": 9420238}, "Henry Lee Summer-1988-Henry Lee Summer": {"folder ... Louie.mp3": 7130517, "Henry Lee Summer 1989.jpg": 52487 ...
创建时间: 2018-12-25 15:01:47 大小:575.36 MB 文件数量:75 热度:10 最近下载:2023-04-15 13:50:03